Terug naar catalogus

YUNYAO-1 16

ActiefWeerSSO
NORAD 60746·PAYLOAD·🇨🇳 China
Deze satellietnaam is nog niet bevestigd door officiële bronnen.

Gelanceerd Aug 29, 2024 vanaf Yellow Sea Launch Area

Loading…

Volgende Passages (komende 24 uur)

TLE

VersSource: Space-Track

Epoch: Sep 14, 2026, 20:28 UTC

1 60746U 24153B   26257.85342273  .00011448  00000-0  33558-3 0  9999
2 60746  97.6904  40.9681 0009204 196.1617 163.9333 15.35331226113705

Volg YUNYAO-1 16 in realtime met AllMySat

Download on the App Store